Monroe, MI

8:53 PM EDT on July 27, 2017 (GMT -0400)
Custer

Weather History for KTTF - May, 2012

Change the Weather History Date:

Tuesday, May 29, 2012

  Actual Average Record
Temperature  
Mean Temperature 74 °F -  
Max Temperature 82 °F 74 °F 92 °F (1941)
Min Temperature 66 °F 53 °F 36 °F (1966)
Cooling Degree Days 9    
Growing Degree Days 24 (Base 50)    
Moisture  
Dew Point 58 °F    
Average Humidity 56    
Maximum Humidity 100    
Minimum Humidity 25    
Precipitation  
Precipitation 0.00 in - - ()
Sea Level Pressure  
Sea Level Pressure 29.75 in    
Wind  
Wind Speed 9 mph (WSW)    
Max Wind Speed 17 mph    
Max Gust Speed 23 mph    
Visibility 9 miles    
Events Rain    
Averages and records for this station are not official NWS values.
T = Trace of Precipitation, MM = Missing Value Source: NWS Daily Summary

Daily Weather History Graph

Daily Weather History Graph

Search for Another Location

Airport or City:

Trip Planner

Search our weather history database for the weather conditions in past years. The results will help you decide how hot, cold, wet, or windy it might be!

Date:

Astronomy

May. 29, 2012 Rise Set
Actual Time 6:02 AM EDT 9:00 PM EDT
Civil Twilight 5:28 AM EDT 9:34 PM EDT
Nautical Twilight 4:46 AM EDT 10:16 PM EDT
Astronomical Twilight 3:56 AM EDT 11:06 PM EDT
Moon 2:24 PM EDT (5/29) 2:01 AM EDT (5/29)
Length of Visible Light 16h 05m
Length of Day
14h 58m
First Quarter, 59% of the Moon is Illuminated
May 29
First Quarter
Jun 4
Full
Jun 11
Last Quarter
Jun 19
New
Jun 26
First Quarter

Hourly Weather History & Observations

Time (EDT) Temp. Heat Index Dew Point Humidity Pressure Visibility Wind Dir Wind Speed Gust Speed Precip Events Conditions
12:15 AM 82.4 °F 82.5 °F 59.0 °F 45% 29.77 in 10.0 mi SW 8.1 mph - N/A   Scattered Clouds
12:35 AM 82.4 °F 82.5 °F 59.0 °F 45% 29.76 in 10.0 mi SSW 5.8 mph - N/A   Scattered Clouds
12:56 AM 82.4 °F 82.9 °F 60.8 °F 48% 29.76 in 10.0 mi SSW 6.9 mph - N/A   Clear
1:16 AM 82.4 °F 82.9 °F 60.8 °F 48% 29.75 in 10.0 mi SSW 8.1 mph - N/A   Clear
1:31 AM 80.6 °F 81.5 °F 60.8 °F 51% 29.75 in 10.0 mi SSW 8.1 mph - N/A   Clear
1:51 AM 82.4 °F 82.9 °F 60.8 °F 48% 29.75 in 10.0 mi SSW 8.1 mph - N/A   Clear
2:11 AM 82.4 °F 82.9 °F 60.8 °F 48% 29.74 in 10.0 mi SW 9.2 mph - N/A   Clear
2:31 AM 82.4 °F 82.9 °F 60.8 °F 48% 29.74 in 10.0 mi SW 11.5 mph - N/A   Clear
2:51 AM 82.4 °F 83.4 °F 62.6 °F 51% 29.74 in 10.0 mi SW 12.7 mph 19.6 mph N/A   Scattered Clouds
3:11 AM 82.4 °F 83.4 °F 62.6 °F 51% 29.73 in 10.0 mi SW 11.5 mph 16.1 mph N/A   Overcast
3:32 AM 82.4 °F 83.9 °F 64.4 °F 54% 29.73 in 10.0 mi SW 11.5 mph 19.6 mph N/A   Mostly Cloudy
3:52 AM 82.4 °F 83.9 °F 64.4 °F 54% 29.73 in 10.0 mi SSW 11.5 mph - N/A   Overcast
4:12 AM 82.4 °F 83.9 °F 64.4 °F 54% 29.72 in 10.0 mi SW 12.7 mph 17.3 mph N/A   Overcast
4:32 AM 80.6 °F 82.3 °F 64.4 °F 58% 29.72 in 10.0 mi SW 10.4 mph - N/A Rain Light Rain
4:52 AM 80.6 °F 82.3 °F 64.4 °F 58% 29.71 in 10.0 mi WSW 9.2 mph - N/A   Mostly Cloudy
5:12 AM 78.8 °F - 64.4 °F 61% 29.71 in 10.0 mi West 5.8 mph - N/A   Clear
5:32 AM 78.8 °F - 64.4 °F 61% 29.71 in 10.0 mi SSW 4.6 mph - N/A   Scattered Clouds
5:53 AM 77.0 °F - 66.2 °F 69% 29.70 in 10.0 mi SW 3.5 mph - N/A   Scattered Clouds
6:13 AM 75.2 °F - 66.2 °F 73% 29.70 in 10.0 mi SSW 3.5 mph - N/A   Clear
6:33 AM 75.2 °F - 66.2 °F 73% 29.70 in 10.0 mi SW 3.5 mph - N/A   Clear
6:53 AM 75.2 °F - 66.2 °F 73% 29.71 in 10.0 mi South 4.6 mph - N/A   Clear
7:13 AM 75.2 °F - 68.0 °F 78% 29.73 in 10.0 mi South 6.9 mph - N/A   Mostly Cloudy
7:33 AM 75.2 °F - 69.8 °F 83% 29.75 in 7.0 mi SW 6.9 mph - N/A   Overcast
7:53 AM 75.2 °F - 69.8 °F 83% 29.76 in 7.0 mi South 15.0 mph 20.7 mph N/A Rain Light Rain
8:13 AM 73.4 °F - 71.6 °F 94% 29.77 in 4.0 mi SSW 15.0 mph 23.0 mph N/A Rain Heavy Rain
8:34 AM 71.6 °F - 71.6 °F 100% 29.78 in 7.0 mi SSW 11.5 mph 16.1 mph N/A   Scattered Clouds
8:54 AM 71.6 °F - 71.6 °F 100% 29.79 in 4.0 mi SW 13.8 mph 19.6 mph N/A Rain Rain
9:14 AM 71.6 °F - 71.6 °F 100% 29.78 in 4.0 mi SW 12.7 mph - N/A Rain Light Rain
9:34 AM 71.6 °F - 71.6 °F 100% 29.78 in 5.0 mi SSW 12.7 mph 20.7 mph N/A   Scattered Clouds
9:54 AM 71.6 °F - 71.6 °F 100% 29.79 in 5.0 mi SW 15.0 mph - N/A   Scattered Clouds
10:14 AM 71.6 °F - 71.6 °F 100% 29.82 in 5.0 mi WSW 16.1 mph 21.9 mph N/A Rain Rain
10:34 AM 69.8 °F - 69.8 °F 100% 29.80 in 5.0 mi SW 10.4 mph 16.1 mph N/A Rain Light Rain
10:54 AM 69.8 °F - 69.8 °F 100% 29.80 in 2.5 mi WSW 8.1 mph - N/A Rain Heavy Rain
11:15 AM 71.6 °F - 71.6 °F 100% 29.79 in 7.0 mi WSW 10.4 mph - N/A   Mostly Cloudy
11:35 AM 71.6 °F - 71.6 °F 100% 29.81 in 7.0 mi WSW 9.2 mph - N/A   Overcast
11:55 AM 73.4 °F - 73.4 °F 100% 29.81 in 7.0 mi SW 12.7 mph - N/A   Overcast
12:15 PM 75.2 °F - 75.2 °F 100% 29.80 in 7.0 mi SW 13.8 mph - N/A   Mostly Cloudy
12:35 PM 75.2 °F - 73.4 °F 94% 29.79 in 7.0 mi West 12.7 mph - N/A   Scattered Clouds
12:55 PM 78.8 °F - 64.4 °F 61% 29.79 in 10.0 mi West 15.0 mph 21.9 mph N/A   Scattered Clouds
1:15 PM 78.8 °F - 62.6 °F 57% 29.79 in 10.0 mi West 17.3 mph 20.7 mph N/A   Scattered Clouds
1:35 PM 78.8 °F - 59.0 °F 51% 29.79 in 10.0 mi NW 12.7 mph 17.3 mph N/A   Scattered Clouds
1:56 PM 80.6 °F 80.3 °F 53.6 °F 39% 29.79 in 10.0 mi NW 13.8 mph 17.3 mph N/A   Clear
2:16 PM 80.6 °F 80.3 °F 53.6 °F 39% 29.78 in 10.0 mi WNW 12.7 mph - N/A   Clear
2:31 PM 80.6 °F - 51.8 °F 37% 29.77 in 10.0 mi West 10.4 mph - N/A   Clear
2:51 PM 80.6 °F - 46.4 °F 30% 29.76 in 10.0 mi WNW 8.1 mph - N/A   Clear
3:11 PM 82.4 °F - 48.2 °F 30% 29.76 in 10.0 mi NNW 9.2 mph 16.1 mph N/A   Clear
3:31 PM 82.4 °F - 44.6 °F 26% 29.76 in 10.0 mi WNW 9.2 mph 16.1 mph N/A   Clear
3:51 PM 82.4 °F - 42.8 °F 25% 29.75 in 10.0 mi West 8.1 mph - N/A   Clear
4:11 PM 82.4 °F - 44.6 °F 26% 29.75 in 10.0 mi West 9.2 mph - N/A   Clear
4:32 PM 82.4 °F - 44.6 °F 26% 29.74 in 10.0 mi West 10.4 mph - N/A   Clear
4:52 PM 82.4 °F - 42.8 °F 25% 29.74 in 10.0 mi West 9.2 mph 18.4 mph N/A   Clear
5:12 PM 82.4 °F - 44.6 °F 26% 29.74 in 10.0 mi West 9.2 mph - N/A   Clear
5:32 PM 82.4 °F - 42.8 °F 25% 29.74 in 10.0 mi West 10.4 mph - N/A   Clear
5:52 PM 82.4 °F - 46.4 °F 28% 29.74 in 10.0 mi WNW 5.8 mph - N/A   Clear
6:12 PM 82.4 °F - 44.6 °F 26% 29.74 in 10.0 mi WNW 12.7 mph - N/A   Clear
6:32 PM 82.4 °F - 42.8 °F 25% 29.74 in 10.0 mi West 13.8 mph 17.3 mph N/A   Clear
6:52 PM 80.6 °F - 42.8 °F 26% 29.74 in 10.0 mi West 8.1 mph - N/A   Clear
7:13 PM 80.6 °F - 44.6 °F 28% 29.73 in 10.0 mi West 8.1 mph - N/A   Clear
7:33 PM 80.6 °F - 44.6 °F 28% 29.73 in 10.0 mi West 5.8 mph - N/A   Clear
7:53 PM 80.6 °F - 48.2 °F 32% 29.73 in 10.0 mi WSW 6.9 mph - N/A   Clear
8:13 PM 78.8 °F - 42.8 °F 28% 29.73 in 10.0 mi West 8.1 mph 17.3 mph N/A   Clear
8:33 PM 77.0 °F - 42.8 °F 29% 29.73 in 10.0 mi West 5.8 mph - N/A   Clear
8:53 PM 75.2 °F - 44.6 °F 34% 29.73 in 10.0 mi West 3.5 mph - N/A   Clear
9:13 PM 73.4 °F - 46.4 °F 38% 29.73 in 10.0 mi Calm Calm - N/A   Scattered Clouds
9:33 PM 71.6 °F - 50.0 °F 46% 29.74 in 10.0 mi Calm Calm - N/A   Scattered Clouds
9:54 PM 69.8 °F - 53.6 °F 56% 29.74 in 10.0 mi Calm Calm - N/A   Clear
10:14 PM 68.0 °F - 55.4 °F 64% 29.76 in 10.0 mi Calm Calm - N/A   Clear
10:34 PM 68.0 °F - 53.6 °F 60% 29.76 in 10.0 mi Calm Calm - N/A   Clear
10:54 PM 66.2 °F - 53.6 °F 64% 29.77 in 10.0 mi West 6.9 mph - N/A   Scattered Clouds
11:14 PM 71.6 °F - 48.2 °F 43% 29.77 in 10.0 mi WNW 6.9 mph - N/A   Scattered Clouds
11:34 PM 71.6 °F - 46.4 °F 41% 29.79 in 10.0 mi NW 6.9 mph - N/A   Clear
11:54 PM 69.8 °F - 46.4 °F 43% 29.79 in 10.0 mi NW 6.9 mph - N/A   Clear